Showing default

CONNECTA IOT-3, 60475

Orbit data source: Space-Track

CONNECTA IOT-3, 60475 is a payload satellite owned by Plan-S (TR) in SSO that was launched on Fri, 16 Aug 2024 UTC via an FALCON 9 launch vehicle from the Air Force Western Test Range (AFWTR). Payload-class satellites include a variety of spacecraft equipped with specific instruments for various scientific and technological missions. These include communications satellites like Starlink; space stations such as the ISS; scientific satellites like the Hubble; Earth observation satellites from companies like Planet Labs, Umbra, and HawkEye 360; GPS; miniature CubeSats for education and research; and military/defense satellites.

Loading next visibility...
Identifier
60475, 2024-149H
Orbit
SSO
Country
Flag of UnknownUnknown / TURK
Related business
Manufacturer
Plan-S
Mission
Operational Commercial Communications
Bus & Motor
CUBESAT 6U, Unknown motor
Mass
10 kg wet, 10 kg dry
Launch date (UTC)
2024-08-16 (1 year ago)
Launch vehicle
FALCON 9
Launch site
Air Force Western Test Range (AFWTR)
Object type
Payload
Rocket body
Debris
Shape & HBR
Box, 2.2 m
Radar Cross Section
0.080 m², Medium (>0.1 m² and < 1m²)

Expand to show TLE details & history
Last TLE update: 1 day ago

TLE from 1 day ago
0 CONNECTA IOT-3
1 60475U 24149H   25312.66639634  .00013203  00000-0  57776-3 0  9992
2 60475  97.3961  27.4643 0002359 354.0139   6.1068 15.22173663 68246
Epoch: 2025-11-08T15:59Z
TLE epoch observation values (Epoch: 2025-11-08T15:59:36.643Z)
Latitude
-0.00011°
Longitude
99.4689°
Altitude
500.766 km
Speed
7.615 km/s
True Right ascension
01h 49m 51s
True Declination
0° 00' 00"
Sunlit
Object was in full shadow at epoch
Visualization orbit readout
Latitude
Unknown
Longitude
Unknown
Altitude
Unknown
Speed
Unknown
Apparent Right ascension
Unknown
Apparent Declination
Unknown
Sunlit
N/A
Visualization observer readout
Local Sidereal Time
19:00:46
Azimuth
Unknown
Elevation
Unknown
Doppler factor
Unknown
Orbital elements
Apogee altitude
497.87 km
Perigee altitude
494.626 km
Semi-major axis
6,874.385 km
Eccentricity
0.00024
Inclination
97.3961°
RAAN
27.4643°
Arg. of periapsis
354.0139°
True anomaly
6.10968°
Mean anomaly
6.1068°
Eccentric anomaly
6.10824°
Mean motion
3.80796 °/min
Orbital period
94.54 mins
BSTAR
0.00057776
Loading maneuver chart data...
Computing Atmospheric mass density...
Loading historical data...
Loading historical data...
Loading historical data...
Loading historical data...
Loading historical data...
Loading historical data...
Loading historical data...

Documentation

Showing up to 5 results
|